Погода в Ньюарке

США     40°43′49″N   74°10′44″W
В апреле 2022 года жителям России запретили посещать сайт meteo.paraplan.net по решению Генеральной прокуратуры. Аудитория сайта уменьшилась в 10 раз. Владельцы сайта не видят смысла в поддержке погодного сервера в таких условиях. Сайт будет закрыт в октябре.
темп.,
°C
ветер,
м/с
пор.,
м/с
влажн.,
%
обл.,
%
осадки,
мм/ч
давл.,
гПа
погр.,
м
30 сентября, пт
пт3023:00+14ссв3848100 0.0 1027536
02:00+13ссв4755100 0.0 1027412
05:00+12ссв4859100 0.0 1027371
08:00+12ссв4853100 0.0 1027416
11:00+16св4540100 0.0 1027780
14:00+18всв3434100 0.0 10251102
17:00+17всв4547100 0.0 1023947
20:00+16св3658100 0.0 1022626
1 октября, сб
сб123:00+16всв3762100 0.0 1022787
02:00+15всв4869100 0.1 1020741
05:00+14св41087100 1.3 1020728
08:00+12ссв51090100 6.4 1021700
11:00+12св61386100 3.4 1020579
14:00+12св61487100 4.6 1019565
17:00+12св51387100 0.3 1018546
20:00+12св51287100 0.6 1018577
2 октября, вс
вс223:00+13св51278100 0.1 1017549
02:00+14св51262100 0.1 1016580
05:00+14св51251100 0.1 1017725
08:00+13св61363100 0.4 1018808
11:00+13св61374100 0.3 1020995
14:00+13св61288100 2.3 10201083
17:00+12св71279100 0.6 1021974
20:00+12св61365100 0.7 1022896
3 октября, пн
пн323:00+12св61256100 0.0 1023865
02:00+11св61252100 0.0 1023764
05:00+10св51158100 0.3 1023768
08:00+10ссв51154100 0.4 1024766
11:00+13св6104894 0.0 1024984
14:00+14всв4742100 0.0 10231134
17:00+15всв254393 0.0 1023481
20:00+14св484679 0.0 1024567
4 октября, вт
вт423:00+13св495444 0.0 1024766
02:00+10св410597 0.0 1024622
05:00+9ссв51159100 0.0 1022577
08:00+9св51256100 0.0 1023583
11:00+12св5953100 0.0 1022767
14:00+14св5846100 0.0 10211083
17:00+14ссв4945100 0.0 1019865
20:00+13ссв4950100 0.1 1019829